FW3111 Weather Reports


time (UTC)temp
C
wind
direction
speed
KPH
gust
KPH
rain 1hr
cm
rain 24hr
cm
rain mn
cm
humidity
%
barometer
mb
20260507075513 17 206 9.7 17.7 0.00 0.00 0.00 100 1014.0
20260507075012 17 134 6.4 16.1 0.00 0.00 0.00 100 1014.1
20260507074511 17 146 9.7 16.1 0.00 0.00 0.00 100 1014.1
20260507074010 17 153 6.4 16.1 0.00 0.00 0.00 100 1014.2
20260507073511 17 166 4.8 14.5 0.00 0.00 0.00 100 1014.3
20260507073008 17 175 6.4 14.5 0.00 0.00 0.00 100 1014.3
20260507072508 17 178 8.0 14.5 0.00 0.00 0.00 100 1014.4
20260507072007 17 203 6.4 16.1 0.00 0.00 0.00 100 1014.4
20260507071510 17 184 8.0 16.1 0.00 0.00 0.00 100 1014.4
20260507071006 17 198 8.0 14.5 0.00 0.00 0.00 100 1014.3
20260507070506 17 210 6.4 14.5 0.00 0.00 0.00 100 1014.2
20260507070009 17 208 8.0 14.5 0.00 0.00 0.00 100 1014.2
20260507065505 17 184 8.0 16.1 0.00 0.00 0.00 100 1014.3
20260507065002 17 150 9.7 16.1 0.00 0.00 0.00 100 1014.5
20260507064501 17 188 6.4 17.7 0.00 0.00 0.00 100 1014.6
20260507064100 17 160 9.7 19.3 0.00 0.00 0.00 100 1014.7
20260507064002 17 147 11.3 19.3 0.00 0.00 0.00 100 1014.8
20260507063559 17 129 9.7 19.3 0.00 0.00 0.00 100 1015.0
20260507063100 17 186 6.4 17.7 0.00 0.00 0.00 100 1015.1
20260507062558 17 192 9.7 17.7 0.00 0.00 0.00 100 1015.2
20260507062057 17 161 8.0 16.1 0.00 0.00 0.00 100 1015.2
20260507061556 17 195 9.7 16.1 0.00 0.00 0.00 100 1015.2
20260507061054 17 194 8.0 12.9 0.00 0.00 0.00 100 1015.2
20260507060553 17 246 6.4 16.1 0.00 0.00 0.00 100 1015.2
20260507060055 17 173 6.4 16.1 0.00 0.00 0.00 100 1015.4
20260507055552 17 166 6.4 17.7 0.00 0.00 0.00 100 1015.3
20260507055051 17 196 9.7 19.3 0.00 0.00 0.00 100 1015.3
20260507054551 18 184 8.0 20.9 0.00 0.00 0.00 100 1015.4
20260507054049 18 189 6.4 20.9 0.00 0.00 0.00 100 1015.5
20260507053548 18 142 6.4 19.3 0.00 0.00 0.00 100 1015.6
20260507053047 18 164 6.4 17.7 0.00 0.00 0.00 100 1015.7
20260507052545 18 167 8.0 20.9 0.00 0.00 0.00 100 1015.7
20260507052045 18 154 8.0 20.9 0.00 0.00 0.00 100 1015.7
20260507051546 18 173 8.0 19.3 0.00 0.00 0.00 100 1015.8
20260507051042 18 155 6.4 19.3 0.00 0.00 0.00 100 1015.8
20260507050541 18 121 9.7 19.3 0.00 0.00 0.00 100 1015.8
20260507050040 18 126 6.4 14.5 0.00 0.00 0.00 100 1015.7
20260507045541 18 165 3.2 16.1 0.00 0.00 0.00 100 1015.7
20260507045039 18 196 12.9 16.1 0.00 0.00 0.00 100 1015.7
20260507044555 18 221 11.3 16.1 0.00 0.00 0.00 100 1015.7
20260507044039 18 198 9.7 17.7 0.00 0.00 0.00 100 1015.7
20260507043539 18 146 6.4 16.1 0.00 0.00 0.00 100 1015.7
20260507043041 18 198 8.0 17.7 0.00 0.00 0.00 100 1015.8
20260507042539 18 223 9.7 17.7 0.00 0.00 0.00 100 1015.8
20260507042038 18 199 8.0 17.7 0.00 0.00 0.00 100 1015.9
20260507041544 18 200 6.4 16.1 0.00 0.00 0.00 100 1016.0
20260507041037 18 182 6.4 17.7 0.00 0.00 0.00 100 1015.9
20260507040538 18 138 8.0 20.9 0.00 0.00 0.00 100 1015.8
20260507040042 18 169 11.3 22.5 0.00 0.00 0.00 100 1015.8
20260507035536 18 132 8.0 20.9 0.00 0.00 0.00 100 1015.8
20260507035036 18 126 9.7 20.9 0.00 0.00 0.00 100 1015.7
20260507034542 18 120 9.7 17.7 0.00 0.00 0.00 100 1015.7
20260507034037 18 152 8.0 16.1 0.00 0.00 0.00 100 1015.6
20260507033536 18 146 9.7 22.5 0.00 0.00 0.00 100 1015.7
20260507033045 18 171 8.0 22.5 0.00 0.00 0.00 100 1015.7
20260507032535 18 132 9.7 19.3 0.00 0.00 0.00 100 1015.6
20260507032040 18 148 6.4 16.1 0.00 0.00 0.00 100 1015.5
20260507031551 18 155 8.0 20.9 0.00 0.00 0.00 100 1015.4
20260507031035 18 183 8.0 22.5 0.00 0.00 0.00 100 1015.4
20260507030534 18 128 12.9 19.3 0.00 0.00 0.00 100 1015.3
20260507030042 18 132 8.0 14.5 0.00 0.00 0.00 100 1015.2
20260507025534 18 208 8.0 20.9 0.00 0.00 0.00 100 1015.1
20260507025036 18 197 11.3 20.9 0.00 0.00 0.00 100 1015.0
20260507024541 18 126 9.7 19.3 0.00 0.00 0.00 100 1015.2
20260507024035 18 182 6.4 17.7 0.00 0.00 0.00 100 1015.1
20260507023533 18 171 9.7 22.5 0.00 0.00 0.00 100 1015.1
20260507023033 18 213 11.3 22.5 0.00 0.00 0.00 100 1014.9
20260507022533 18 180 9.7 19.3 0.00 0.00 0.00 100 1014.9
20260507022033 18 140 9.7 20.9 0.00 0.00 0.00 100 1014.8
20260507021536 18 180 9.7 20.9 0.00 0.00 0.00 100 1014.8
20260507021034 18 161 12.9 25.7 0.00 0.00 0.00 100 1014.7
20260507020535 18 127 11.3 25.7 0.00 0.00 0.00 100 1014.7
20260507020034 18 182 9.7 27.4 0.00 0.00 0.00 100 1014.6
20260507015531 18 147 12.9 24.1 0.00 0.00 0.00 100 1014.5
20260507015033 18 155 12.9 25.7 0.00 0.00 0.00 100 1014.6
20260507014541 18 121 11.3 25.7 0.00 0.00 0.00 100 1014.5
20260507014030 18 125 12.9 20.9 0.00 0.00 0.00 100 1014.3
20260507013530 18 127 8.0 25.7 0.00 0.00 0.00 100 1014.1
20260507013036 18 183 8.0 25.7 0.00 0.00 0.00 100 1013.9
20260507012534 18 202 11.3 22.5 0.00 0.00 0.00 100 1014.2
20260507012030 18 115 8.0 19.3 0.00 0.00 0.00 100 1014.2
20260507011535 18 159 11.3 19.3 0.00 0.00 0.00 100 1014.1
20260507011031 18 209 9.7 24.1 0.00 0.00 0.00 100 1014.2
20260507010530 19 163 11.3 22.5 0.00 0.00 0.00 100 1014.1
20260507010038 19 174 12.9 22.5 0.00 0.00 0.00 100 1013.9
20260507005532 19 155 12.9 20.9 0.00 0.00 0.00 100 1013.9
20260507005034 19 205 12.9 20.9 0.00 0.00 0.00 100 1013.8
20260507004529 19 134 11.3 24.1 0.00 0.00 0.00 100 1013.9
20260507004030 19 145 9.7 19.3 0.00 0.00 0.00 100 1013.7
20260507003529 19 142 11.3 19.3 0.00 0.00 0.00 100 1013.6
20260507003028 19 194 8.0 19.3 0.00 0.00 0.00 100 1013.4
20260507002528 19 198 9.7 19.3 0.00 0.00 0.00 100 1013.2
20260507002030 19 201 11.3 19.3 0.00 0.00 0.00 100 1013.0
20260507001534 19 188 14.5 17.7 0.00 0.00 0.00 100 1012.9
20260507001028 19 190 9.7 19.3 0.00 0.00 0.00 100 1012.7
20260507000528 19 169 8.0 19.3 0.00 0.00 0.00 100 1012.5
20260507000028 19 161 11.3 19.3 0.00 0.00 0.00 100 1012.4
20260506235527 20 183 11.3 27.4 0.00 0.00 0.00 100 1012.5
20260506235027 20 162 12.9 27.4 0.00 0.00 0.00 100 1012.3
20260506234527 20 181 9.7 20.9 0.00 0.00 0.00 100 1012.2
20260506234029 20 210 9.7 27.4 0.00 0.00 0.00 100 1012.2
20260506233527 20 190 11.3 29.0 0.00 0.00 0.00 100 1012.1
20260506233026 20 145 12.9 29.0 0.00 0.00 0.00 100 1012.0
20260506232528 20 169 9.7 24.1 0.00 0.00 0.00 100 1011.9
20260506232026 20 142 12.9 24.1 0.00 0.00 0.00 100 1011.8
20260506231526 21 161 12.9 20.9 0.00 0.00 0.00 100 1011.7
20260506231026 21 181 8.0 19.3 0.00 0.00 0.00 100 1011.7
20260506230529 21 184 6.4 14.5 0.00 0.00 0.00 100 1011.5
20260506230025 21 164 8.0 27.4 0.00 0.00 0.00 100 1011.4
20260506225525 21 163 11.3 27.4 0.00 0.00 0.00 100 1011.2
20260506225027 22 123 12.9 25.7 0.00 0.00 0.00 100 1011.2
20260506224527 22 142 12.9 25.7 0.00 0.00 0.00 100 1011.2
20260506224025 22 147 11.3 25.7 0.00 0.00 0.00 100 1011.1
20260506223524 22 169 12.9 20.9 0.00 0.00 0.00 100 1011.1
20260506223024 23 207 9.7 22.5 0.00 0.00 0.00 100 1010.9
20260506222524 23 154 8.0 25.7 0.00 0.00 0.00 100 1010.7
20260506222024 23 126 8.0 20.9 0.00 0.00 0.00 100 1010.8
20260506221523 23 188 9.7 17.7 0.00 0.00 0.00 100 1010.9
20260506221023 23 255 11.3 22.5 0.00 0.00 0.00 100 1010.8
20260506220523 23 211 9.7 19.3 0.00 0.00 0.00 100 1010.8
20260506220023 24 227 6.4 16.1 0.00 0.00 0.00 100 1010.8
20260506215522 24 226 3.2 19.3 0.00 0.00 0.00 100 1010.8
20260506215023 24 191 6.4 20.9 0.00 0.00 0.00 100 1010.8
20260506214522 25 142 8.0 20.9 0.00 0.00 0.00 100 1011.0
20260506214025 24 154 6.4 16.1 0.00 0.00 0.00 100 1010.9
20260506213526 24 214 6.4 22.5 0.00 0.00 0.00 100 1011.0
20260506213023 24 184 12.9 22.5 0.00 0.00 0.00 100 1011.0
20260506212521 25 175 9.7 19.3 0.00 0.00 0.00 100 1011.0
20260506212023 25 222 8.0 16.1 0.00 0.00 0.00 100 1011.0
20260506211523 25 165 6.4 27.4 0.00 0.00 0.00 100 1010.9
20260506211021 25 159 8.0 29.0 0.00 0.00 0.00 100 1011.1
20260506210521 24 153 14.5 29.0 0.00 0.00 0.00 100 1010.9
20260506210024 25 157 14.5 29.0 0.00 0.00 0.00 100 1010.9
20260506205521 25 153 12.9 24.1 0.00 0.00 0.00 100 1011.1
20260506205018 25 138 9.7 24.1 0.00 0.00 0.00 100 1011.1
20260506204518 25 137 9.7 24.1 0.00 0.00 0.00 100 1011.2
20260506204017 24 110 9.7 22.5 0.00 0.00 0.00 100 1011.1
20260506203517 25 188 12.9 22.5 0.00 0.00 0.00 100 1011.3
20260506203016 25 154 12.9 19.3 0.00 0.00 0.00 100 1011.5
20260506202516 25 199 9.7 16.1 0.00 0.00 0.00 100 1011.5
20260506202017 25 126 8.0 22.5 0.00 0.00 0.00 100 1011.4
20260506201518 25 140 9.7 22.5 0.00 0.00 0.00 100 1011.5
20260506201016 25 230 8.0 24.1 0.00 0.00 0.00 100 1011.5
20260506200514 25 234 9.7 24.1 0.00 0.00 0.00 100 1011.6
20260506200015 25 154 8.0 22.5 0.00 0.00 0.00 100 1011.5
20260506195516 26 117 14.5 22.5 0.00 0.00 0.00 100 1011.6
20260506195013 26 231 6.4 16.1 0.00 0.00 0.00 100 1011.7
20260506194513 26 194 3.2 16.1 0.00 0.00 0.00 100 1011.8
20260506194018 25 131 4.8 17.7 0.00 0.00 0.00 100 1011.9
20260506193512 25 237 11.3 22.5 0.00 0.00 0.00 100 1012.0
20260506193013 25 251 6.4 22.5 0.00 0.00 0.00 100 1012.0
20260506192510 25 213 12.9 30.6 0.00 0.00 0.00 100 1012.2
20260506192011 25 105 17.7 30.6 0.00 0.00 0.00 100 1012.3
20260506191510 26 136 9.7 24.1 0.00 0.00 0.00 100 1012.3
20260506191009 26 103 12.9 22.5 0.00 0.00 0.00 100 1012.2
20260506190508 25 188 11.3 24.1 0.00 0.00 0.00 100 1012.4
20260506190008 25 216 9.7 24.1 0.00 0.00 0.00 100 1012.4
20260506185510 25 132 14.5 20.9 0.00 0.00 0.00 100 1012.6
20260506185007 25 130 8.0 16.1 0.00 0.00 0.00 100 1012.6
20260506184507 25 142 8.0 20.9 0.00 0.00 0.00 100 1012.7
20260506184009 26 143 11.3 20.9 0.00 0.00 0.00 100 1012.8
20260506183506 26 138 11.3 17.7 0.00 0.00 0.00 100 1012.9
20260506183006 26 142 6.4 17.7 0.00 0.00 0.00 100 1012.9
20260506182502 26 102 9.7 17.7 0.00 0.00 0.00 100 1012.8
20260506182001 25 186 8.0 17.7 0.00 0.00 0.00 100 1012.9
20260506181604 25 130 6.4 14.5 0.00 0.00 0.00 100 1012.9
20260506181059 25 134 6.4 12.9 0.00 0.00 0.00 100 1013.1
20260506180559 24 176 4.8 11.3 0.00 0.00 0.00 100 1013.2
20260506180100 25 194 3.2 11.3 0.00 0.00 0.00 100 1013.3
20260506175557 25 208 1.6 19.3 0.00 0.00 0.00 100 1013.3
20260506175057 25 207 8.0 19.3 0.00 0.00 0.00 100 1013.4
20260506174558 25 247 9.7 17.7 0.00 0.00 0.00 100 1013.3
20260506174056 25 263 6.4 17.7 0.00 0.00 0.00 100 1013.5
20260506173556 24 277 3.2 11.3 0.00 0.00 0.00 100 1013.5
20260506173124 24 203 6.4 9.7 0.00 0.00 0.00 100 1013.6
20260506172555 24 252 3.2 9.7 0.00 0.00 0.00 100 1013.6
20260506172100 24 244 3.2 11.3 0.00 0.00 0.00 100 1013.7
20260506171602 25 242 6.4 16.1 0.00 0.00 0.00 100 1013.7
20260506171055 25 236 4.8 11.3 0.00 0.00 0.00 100 1013.8
20260506170552 25 220 3.2 12.9 0.00 0.00 0.00 100 1013.8
20260506170052 24 238 3.2 16.1 0.00 0.00 0.00 100 1013.9
20260506165552 24 273 6.4 14.5 0.00 0.00 0.00 100 1014.0
20260506165053 24 226 3.2 17.7 0.00 0.00 0.00 100 1014.1
20260506164557 24 255 8.0 17.7 0.00 0.00 0.00 100 1014.1
20260506164051 25 219 8.0 14.5 0.00 0.00 0.00 100 1014.2
20260506163549 24 282 3.2 11.3 0.00 0.00 0.00 100 1014.3
20260506163058 24 210 0.0 12.9 0.00 0.00 0.00 100 1014.4
20260506162548 24 210 4.8 12.9 0.00 0.00 0.00 100 1014.5
20260506162049 23 246 6.4 11.3 0.00 0.00 0.00 100 1014.5
20260506161558 23 198 4.8 16.1 0.00 0.00 0.00 100 1014.5
20260506161046 23 261 11.3 16.1 0.00 0.00 0.00 100 1014.5
20260506160545 23 270 8.0 16.1 0.00 0.00 0.00 100 1014.6
20260506160046 23 285 6.4 12.9 0.00 0.00 0.00 100 1014.6
20260506155542 22 215 3.2 11.3 0.00 0.00 0.00 100 1014.7
20260506155043 22 190 4.8 11.3 0.00 0.00 0.00 100 1014.7
20260506154548 22 228 6.4 9.7 0.00 0.00 0.00 100 1014.8
20260506154042 22 296 3.2 9.7 0.00 0.00 0.00 100 1014.9
20260506153543 22 269 3.2 12.9 0.00 0.00 0.00 100 1014.9
20260506153046 22 277 9.7 12.9 0.00 0.00 0.00 100 1014.9
20260506152542 22 260 4.8 11.3 0.00 0.00 0.00 100 1015.0
20260506152040 22 273 1.6 8.0 0.00 0.00 0.00 100 1015.0
20260506151540 22 238 1.6 9.7 0.00 0.00 0.00 100 1015.1
20260506151041 22 271 4.8 9.7 0.00 0.00 0.00 100 1015.1
20260506150544 22 262 1.6 9.7 0.00 0.00 0.00 100 1015.2
20260506150042 22 269 3.2 9.7 0.00 0.00 0.00 100 1015.2
20260506145538 22 268 4.8 11.3 0.00 0.00 0.00 100 1015.2
20260506145038 22 271 6.4 11.3 0.00 0.00 0.00 100 1015.3
20260506144541 22 271 1.6 6.4 0.00 0.00 0.00 100 1015.4
20260506144035 21 238 0.0 3.2 0.00 0.00 0.00 100 1015.5
20260506143534 21 217 0.0 4.8 0.00 0.00 0.00 100 1015.4
20260506143036 21 215 1.6 8.0 0.00 0.00 0.00 100 1015.4
20260506142530 21 279 1.6 8.0 0.00 0.00 0.00 100 1015.5
20260506142030 21 320 0.0 0.0 0.00 0.00 0.00 100 1015.4
20260506141532 21 324 0.0 0.0 0.00 0.00 0.00 100 1015.4
20260506141029 21 325 0.0 0.0 0.00 0.00 0.00 100 1015.4
20260506140529 20 341 0.0 0.0 0.00 0.00 0.00 100 1015.4
20260506140027 20 27 0.0 0.0 0.00 0.00 0.00 100 1015.4
20260506135527 20 36 0.0 4.8 0.00 0.00 0.00 100 1015.4
20260506135025 20 36 1.6 4.8 0.00 0.00 0.00 100 1015.3
20260506134524 20 63 0.0 4.8 0.00 0.00 0.00 100 1015.3
20260506134023 19 63 1.6 4.8 0.00 0.00 0.00 100 1015.2
20260506133523 19 63 0.0 8.0 0.00 0.00 0.00 100 1015.2
20260506133125 19 63 0.0 8.0 0.00 0.00 0.00 100 1015.1
20260506132526 19 61 1.6 6.4 0.00 0.00 0.00 100 1015.1
20260506132020 18 58 0.0 0.0 0.00 0.00 0.00 100 1015.1
20260506131529 18 63 0.0 0.0 0.00 0.00 0.00 100 1015.1
20260506131018 18 63 0.0 0.0 0.00 0.00 0.00 100 1015.1
20260506130517 18 63 0.0 0.0 0.00 0.00 0.00 100 1015.2
20260506130017 18 63 0.0 0.0 0.00 0.00 0.00 100 1015.1
20260506125519 18 55 0.0 0.0 0.00 0.00 0.00 100 1015.2
20260506125019 17 54 0.0 0.0 0.00 0.00 0.00 100 1015.1
20260506124516 17 54 0.0 0.0 0.00 0.00 0.00 100 1015.1
20260506124014 17 56 0.0 0.0 0.00 0.00 0.00 100 1015.1
20260506123513 17 57 0.0 0.0 0.00 0.00 0.00 100 1015.1
20260506123013 17 56 0.0 0.0 0.00 0.00 0.00 100 1015.2
20260506122512 17 55 0.0 0.0 0.00 0.00 0.00 100 1015.0
20260506122012 17 54 0.0 0.0 0.00 0.00 0.00 100 1015.0
20260506121512 17 53 0.0 0.0 0.00 0.00 0.00 100 1014.9
20260506121011 17 53 0.0 0.0 0.00 0.00 0.00 100 1015.0
20260506120511 17 54 0.0 0.0 0.00 0.00 0.00 100 1014.9
20260506120014 16 40 0.0 0.0 0.00 0.00 0.00 100 1014.9
20260506115511 16 39 0.0 0.0 0.00 0.00 0.00 100 1014.8
20260506115009 16 42 0.0 0.0 0.00 0.00 0.00 100 1014.7
20260506114508 16 42 0.0 0.0 0.00 0.00 0.00 100 1014.7
20260506114005 16 42 0.0 0.0 0.00 0.00 0.00 100 1014.6
20260506113505 16 42 0.0 0.0 0.00 0.00 0.00 100 1014.6
20260506113006 17 42 0.0 0.0 0.00 0.00 0.00 100 1014.5
20260506112504 17 42 0.0 0.0 0.00 0.00 0.00 100 1014.6
20260506112003 17 42 0.0 0.0 0.00 0.00 0.00 100 1014.6
20260506111504 17 31 0.0 0.0 0.00 0.00 0.00 100 1014.5
20260506111004 17 31 0.0 0.0 0.00 0.00 0.00 100 1014.5
20260506110504 17 31 0.0 0.0 0.00 0.00 0.00 100 1014.4
20260506110003 17 31 0.0 0.0 0.00 0.00 0.00 100 1014.4
20260506105503 17 31 0.0 0.0 0.00 0.00 0.00 100 1014.3
20260506105004 17 31 0.0 0.0 0.00 0.00 0.00 100 1014.2
20260506104502 17 31 0.0 0.0 0.00 0.00 0.00 100 1014.2
20260506104002 17 31 0.0 0.0 0.00 0.00 0.00 100 1014.2
20260506103502 17 31 0.0 0.0 0.00 0.00 0.00 100 1014.1
20260506103002 17 30 0.0 0.0 0.00 0.00 0.00 100 1014.1
20260506102600 17 30 0.0 0.0 0.00 0.00 0.00 100 1014.1
20260506102502 17 30 0.0 0.0 0.00 0.00 0.00 100 1014.0
20260506102100 17 30 0.0 0.0 0.00 0.00 0.00 100 1014.0
20260506101617 17 30 0.0 0.0 0.00 0.00 0.00 100 1013.9
20260506101059 17 29 0.0 0.0 0.00 0.00 0.00 100 1013.9
20260506100559 17 28 0.0 0.0 0.00 0.00 0.00 100 1013.8
20260506100119 17 28 0.0 0.0 0.00 0.00 0.00 100 1013.7
20260506095603 17 28 0.0 0.0 0.00 0.00 0.00 100 1013.7
20260506095101 17 28 0.0 0.0 0.00 0.00 0.00 100 1013.7
20260506094558 17 28 0.0 0.0 0.00 0.00 0.00 100 1013.7
20260506094057 17 65 0.0 0.0 0.00 0.00 0.00 100 1013.7
20260506093557 17 65 0.0 0.0 0.00 0.00 0.00 100 1013.7
20260506093057 17 65 0.0 0.0 0.00 0.00 0.00 100 1013.7
20260506092557 17 65 0.0 0.0 0.00 0.00 0.00 100 1013.6
20260506092056 17 65 0.0 0.0 0.00 0.00 0.00 100 1013.8
20260506091556 17 65 0.0 0.0 0.00 0.00 0.00 100 1013.8
20260506091054 17 65 0.0 0.0 0.00 0.00 0.00 100 1013.9
20260506090555 17 65 0.0 0.0 0.00 0.00 0.00 100 1013.9
20260506090054 17 65 0.0 0.0 0.00 0.00 0.00 100 1014.1
20260506085553 17 65 0.0 0.0 0.00 0.00 0.00 100 1014.1
20260506085053 17 65 0.0 0.0 0.00 0.00 0.00 100 1014.1
20260506084619 17 65 0.0 0.0 0.00 0.00 0.00 100 1014.3
20260506084052 17 65 0.0 0.0 0.00 0.00 0.00 100 1014.3
20260506083552 17 65 0.0 0.0 0.00 0.00 0.00 100 1014.4
20260506083051 17 65 0.0 0.0 0.00 0.00 0.00 100 1014.3
20260506082550 17 65 0.0 0.0 0.00 0.00 0.00 100 1014.3
20260506082049 17 65 0.0 0.0 0.00 0.00 0.00 100 1014.5
20260506081554 17 67 0.0 0.0 0.00 0.00 0.00 100 1014.5
20260506081048 17 69 0.0 0.0 0.00 0.00 0.00 100 1014.5
20260506080548 17 69 0.0 0.0 0.00 0.00 0.00 100 1014.5